World > North America > United States > Wisconsin

Kimberly, Wisconsin Regional Weather

Lat: 44.28N, Lon: 88.31W
Wx Zone: WIZ038
Feedback

Kimberly, WI Regional Weather

Expires:201908211000;;975694
ASUS43 KMKX 210921
RWRWI 

WISCONSIN REGIONAL WEATHER ROUNDUP
NATIONAL WEATHER SERVICE MILWAUKEE/SULLIVAN WI
400 AM CDT WED AUG 21 2019

NOTE: "FAIR" INDICATES FEW OR NO CLOUDS BELOW 12,000 FEET WITH NO
SIGNIFICANT WEATHER AND/OR OBSTRUCTIONS TO VISIBILITY.


WIZ011>013-019>022-031-037>040-048>050-211000-
NORTHEAST WISCONSIN
  
CITY           SKY/WX    TMP DP  RH WIND       PRES   REMARKS
ANTIGO         MOCLDY    61  61 100 NW7       29.97R                  
SHAWANO        FAIR      66  63  90 CALM      29.92F                  
OCONTO         MOCLDY    64  62  93 NW3       29.91S                  
STURGEON BAY   FAIR      67  64  90 NW5       29.91F                  
GREEN BAY      MOCLDY    65  64  97 S3        29.92S                  
MANITOWOC      CLOUDY    67  65  93 CALM      29.92S                  
APPLETON       FAIR      63  61  94 W6        29.92F                  
CLINTONVILLE   FAIR      67  62  82 NW5       29.92F                  
OSHKOSH        FAIR      66  62  87 NW5       29.92F                  
$$
 

SKY/WX - Weather  TMP - Temperature  DP - Dew Point  RH - Relative Humidity
WIND - Wind Direction/Speed PRES - Barometric Pressure VSB - Visibility
WCI - Wind Chill Index E13G22 Wind - East Wind 13 mph/Gusts of 22 mph